Time,TemperatureF,DewpointF,PressureIn,WindDirection,WindDirectionDegrees,WindSpeedMPH,WindSpeedGustMPH,Humidity,HourlyPrecipIn,Conditions,Clouds,dailyrainin,SoftwareType,DateUTC
2013-05-27 00:01:00,77.2,70.5,29.90,SE,143,1.0,1.0,80,0.00,,,0.00,WeatherCatV1.02B3,2013-05-27 05:01:00,
2013-05-27 00:06:00,77.1,70.8,29.90,SE,134,0.0,2.0,81,0.00,,,0.00,WeatherCatV1.02B3,2013-05-27 05:06:00,
2013-05-27 00:11:00,77.0,70.7,29.90,ESE,119,0.0,0.0,81,0.00,,,0.00,WeatherCatV1.02B3,2013-05-27 05:11:00,
2013-05-27 00:16:00,76.9,70.6,29.91,South,170,0.0,0.0,81,0.00,,,0.00,WeatherCatV1.02B3,2013-05-27 05:16:00,
2013-05-27 00:21:00,76.8,70.5,29.91,SSW,193,0.0,3.0,81,0.00,,,0.00,WeatherCatV1.02B3,2013-05-27 05:21:00,
2013-05-27 00:26:00,76.7,70.4,29.91,SSE,148,1.0,9.0,81,0.00,,,0.00,WeatherCatV1.02B3,2013-05-27 05:26:00,
2013-05-27 00:31:00,76.6,70.7,29.90,South,190,3.0,3.0,82,0.00,,,0.00,WeatherCatV1.02B3,2013-05-27 05:31:00,
2013-05-27 00:36:00,76.5,70.6,29.90,South,173,0.0,2.0,82,0.00,,,0.00,WeatherCatV1.02B3,2013-05-27 05:36:00,
2013-05-27 00:41:00,76.4,70.5,29.90,SSE,150,0.0,1.0,82,0.00,,,0.00,WeatherCatV1.02B3,2013-05-27 05:41:00,
2013-05-27 00:46:00,76.3,70.7,29.90,South,172,0.0,3.0,83,0.00,,,0.00,WeatherCatV1.02B3,2013-05-27 05:46:00,
2013-05-27 00:51:00,76.1,70.5,29.90,South,171,0.0,0.0,83,0.00,,,0.00,WeatherCatV1.02B3,2013-05-27 05:51:00,
2013-05-27 00:56:00,76.0,70.4,29.90,SSE,153,0.0,4.0,83,0.00,,,0.00,WeatherCatV1.02B3,2013-05-27 05:56:00,
2013-05-27 01:01:00,76.0,70.4,29.89,SW,220,6.0,7.0,83,0.00,,,0.00,WeatherCatV1.02B3,2013-05-27 06:01:00,
2013-05-27 01:06:00,75.9,70.4,29.89,SSE,155,0.0,9.0,83,0.00,,,0.00,WeatherCatV1.02B3,2013-05-27 06:06:00,
2013-05-27 01:11:00,75.8,70.3,29.89,South,170,0.0,6.0,83,0.00,,,0.00,WeatherCatV1.02B3,2013-05-27 06:11:00,
2013-05-27 01:16:00,75.7,70.5,29.89,South,186,0.0,9.0,84,0.00,,,0.00,WeatherCatV1.02B3,2013-05-27 06:16:00,
2013-05-27 01:21:00,75.6,70.4,29.89,SSE,163,0.0,3.0,84,0.00,,,0.00,WeatherCatV1.02B3,2013-05-27 06:21:00,
2013-05-27 01:26:00,75.6,70.4,29.89,SSE,167,0.0,7.0,84,0.00,,,0.00,WeatherCatV1.02B3,2013-05-27 06:26:00,
2013-05-27 01:31:00,75.5,70.3,29.89,SSW,192,0.0,0.0,84,0.00,,,0.00,WeatherCatV1.02B3,2013-05-27 06:31:00,
2013-05-27 01:36:00,75.4,70.2,29.89,South,191,0.0,7.0,84,0.00,,,0.00,WeatherCatV1.02B3,2013-05-27 06:36:00,
2013-05-27 01:41:00,75.3,70.5,29.89,SE,144,0.0,2.0,85,0.00,,,0.00,WeatherCatV1.02B3,2013-05-27 06:41:00,
2013-05-27 01:46:00,75.2,70.4,29.89,South,186,0.0,4.0,85,0.00,,,0.00,WeatherCatV1.02B3,2013-05-27 06:46:00,
2013-05-27 01:51:00,75.1,70.3,29.89,South,183,0.0,0.0,85,0.00,,,0.00,WeatherCatV1.02B3,2013-05-27 06:51:00,
2013-05-27 01:56:00,75.1,70.3,29.89,SSE,167,0.0,0.0,85,0.00,,,0.00,WeatherCatV1.02B3,2013-05-27 06:56:00,
2013-05-27 02:01:00,75.0,70.2,29.89,South,180,1.0,3.0,85,0.00,,,0.00,WeatherCatV1.02B3,2013-05-27 07:01:00,
2013-05-27 02:06:00,74.9,70.4,29.89,SSW,203,0.0,0.0,86,0.00,,,0.00,WeatherCatV1.02B3,2013-05-27 07:06:00,
2013-05-27 02:11:00,74.8,70.3,29.89,SE,130,0.0,1.0,86,0.00,,,0.00,WeatherCatV1.02B3,2013-05-27 07:11:00,
2013-05-27 02:16:00,74.7,70.2,29.89,South,173,0.0,5.0,86,0.00,,,0.00,WeatherCatV1.02B3,2013-05-27 07:16:00,
2013-05-27 02:21:00,74.5,70.0,29.89,South,185,0.0,4.0,86,0.00,,,0.00,WeatherCatV1.02B3,2013-05-27 07:21:00,
2013-05-27 02:26:00,74.4,69.9,29.89,South,175,0.0,5.0,86,0.00,,,0.00,WeatherCatV1.02B3,2013-05-27 07:26:00,
2013-05-27 02:31:00,74.3,69.8,29.88,South,173,0.0,3.0,86,0.00,,,0.00,WeatherCatV1.02B3,2013-05-27 07:31:00,
2013-05-27 02:36:00,74.2,69.7,29.88,SSE,147,0.0,5.0,86,0.00,,,0.00,WeatherCatV1.02B3,2013-05-27 07:36:00,
2013-05-27 02:41:00,74.2,69.7,29.88,SW,227,4.0,4.0,86,0.00,,,0.00,WeatherCatV1.02B3,2013-05-27 07:41:00,
2013-05-27 02:46:00,74.1,69.6,29.88,SSE,162,1.0,3.0,86,0.00,,,0.00,WeatherCatV1.02B3,2013-05-27 07:46:00,
2013-05-27 02:51:00,74.1,69.6,29.88,SSW,200,0.0,6.0,86,0.00,,,0.00,WeatherCatV1.02B3,2013-05-27 07:51:00,
2013-05-27 02:56:00,74.0,69.5,29.88,South,173,0.0,4.0,86,0.00,,,0.00,WeatherCatV1.02B3,2013-05-27 07:56:00,
2013-05-27 03:01:00,74.0,69.5,29.88,SSW,194,3.0,5.0,86,0.00,,,0.00,WeatherCatV1.02B3,2013-05-27 08:01:00,
2013-05-27 03:06:00,74.0,69.5,29.88,SSW,207,4.0,4.0,86,0.00,,,0.00,WeatherCatV1.02B3,2013-05-27 08:06:00,
2013-05-27 03:11:00,73.9,69.4,29.88,SSW,194,0.0,6.0,86,0.00,,,0.00,WeatherCatV1.02B3,2013-05-27 08:11:00,
2013-05-27 03:16:00,73.8,69.3,29.87,South,189,3.0,6.0,86,0.00,,,0.00,WeatherCatV1.02B3,2013-05-27 08:16:00,
2013-05-27 03:21:00,73.7,69.2,29.87,South,188,1.0,7.0,86,0.00,,,0.00,WeatherCatV1.02B3,2013-05-27 08:21:00,
2013-05-27 03:26:00,73.7,69.2,29.87,SSW,212,1.0,1.0,86,0.00,,,0.00,WeatherCatV1.02B3,2013-05-27 08:26:00,
2013-05-27 03:31:00,73.6,69.1,29.87,South,175,0.0,10.0,86,0.00,,,0.00,WeatherCatV1.02B3,2013-05-27 08:31:00,
2013-05-27 03:36:00,73.5,69.0,29.87,South,182,1.0,3.0,86,0.00,,,0.00,WeatherCatV1.02B3,2013-05-27 08:36:00,
2013-05-27 03:41:00,73.5,69.0,29.87,South,171,1.0,2.0,86,0.00,,,0.00,WeatherCatV1.02B3,2013-05-27 08:41:00,
2013-05-27 03:46:00,73.3,68.8,29.86,South,177,1.0,3.0,86,0.00,,,0.00,WeatherCatV1.02B3,2013-05-27 08:46:00,
2013-05-27 03:51:00,73.2,68.8,29.86,South,178,1.0,6.0,86,0.00,,,0.00,WeatherCatV1.02B3,2013-05-27 08:51:00,
2013-05-27 03:56:00,73.2,68.8,29.86,SE,139,0.0,2.0,86,0.00,,,0.00,WeatherCatV1.02B3,2013-05-27 08:56:00,
2013-05-27 04:01:00,73.2,69.1,29.86,SSE,167,0.0,2.0,87,0.00,,,0.00,WeatherCatV1.02B3,2013-05-27 09:01:00,
2013-05-27 04:06:00,73.1,68.7,29.86,SSW,202,1.0,3.0,86,0.00,,,0.00,WeatherCatV1.02B3,2013-05-27 09:06:00,
2013-05-27 04:11:00,73.0,68.9,29.86,South,178,1.0,3.0,87,0.00,,,0.00,WeatherCatV1.02B3,2013-05-27 09:11:00,
2013-05-27 04:16:00,72.9,68.8,29.86,SSE,158,0.0,2.0,87,0.00,,,0.00,WeatherCatV1.02B3,2013-05-27 09:16:00,
2013-05-27 04:21:00,72.9,68.8,29.86,SSW,200,0.0,3.0,87,0.00,,,0.00,WeatherCatV1.02B3,2013-05-27 09:21:00,
2013-05-27 04:26:00,72.7,68.6,29.86,South,176,3.0,4.0,87,0.00,,,0.00,WeatherCatV1.02B3,2013-05-27 09:26:00,
2013-05-27 04:27:00,72.7,68.6,29.86,South,186,0.0,5.0,87,0.00,,,0.00,WeatherCatV1.02B3,2013-05-27 09:27:00,
2013-05-27 04:32:00,72.6,68.5,29.85,South,170,0.0,1.0,87,0.00,,,0.00,WeatherCatV1.02B3,2013-05-27 09:32:00,
2013-05-27 04:37:00,72.5,68.7,29.85,SSW,205,0.0,3.0,88,0.00,,,0.00,WeatherCatV1.02B3,2013-05-27 09:37:00,
2013-05-27 04:42:00,72.4,68.6,29.85,South,189,0.0,3.0,88,0.00,,,0.00,WeatherCatV1.02B3,2013-05-27 09:42:00,
2013-05-27 04:47:00,72.3,68.5,29.85,SSE,164,0.0,7.0,88,0.00,,,0.00,WeatherCatV1.02B3,2013-05-27 09:47:00,
2013-05-27 04:52:00,72.2,68.4,29.85,SSE,155,1.0,5.0,88,0.00,,,0.00,WeatherCatV1.02B3,2013-05-27 09:52:00,
2013-05-27 04:57:00,72.1,68.3,29.85,SE,146,1.0,5.0,88,0.00,,,0.00,WeatherCatV1.02B3,2013-05-27 09:57:00,
2013-05-27 05:02:00,72.0,68.6,29.85,SSW,194,0.0,3.0,89,0.00,,,0.00,WeatherCatV1.02B3,2013-05-27 10:02:00,
2013-05-27 05:07:00,71.9,68.5,29.85,SSW,202,1.0,5.0,89,0.00,,,0.00,WeatherCatV1.02B3,2013-05-27 10:07:00,
2013-05-27 05:12:00,71.9,68.5,29.85,South,187,1.0,6.0,89,0.00,,,0.00,WeatherCatV1.02B3,2013-05-27 10:12:00,
2013-05-27 05:17:00,71.9,68.5,29.85,SSW,197,1.0,3.0,89,0.00,,,0.00,WeatherCatV1.02B3,2013-05-27 10:17:00,
2013-05-27 05:22:00,71.8,68.4,29.85,SSE,158,0.0,9.0,89,0.00,,,0.00,WeatherCatV1.02B3,2013-05-27 10:22:00,
2013-05-27 05:27:00,71.8,68.4,29.85,SSW,205,7.0,7.0,89,0.00,,,0.00,WeatherCatV1.02B3,2013-05-27 10:27:00,
2013-05-27 05:32:00,71.7,68.6,29.85,SE,137,5.0,13.0,90,0.00,,,0.00,WeatherCatV1.02B3,2013-05-27 10:32:00,
2013-05-27 05:37:00,71.7,68.6,29.85,SSE,163,0.0,4.0,90,0.00,,,0.00,WeatherCatV1.02B3,2013-05-27 10:37:00,
2013-05-27 05:42:00,71.7,68.6,29.85,ESE,117,3.0,7.0,90,0.00,,,0.00,WeatherCatV1.02B3,2013-05-27 10:42:00,
2013-05-27 05:47:00,71.8,68.7,29.86,WSW,250,0.0,4.0,90,0.00,,,0.00,WeatherCatV1.02B3,2013-05-27 10:47:00,
2013-05-27 05:52:00,71.9,68.8,29.86,SSE,151,0.0,4.0,90,0.00,,,0.00,WeatherCatV1.02B3,2013-05-27 10:52:00,
2013-05-27 05:57:00,71.9,68.8,29.86,South,180,0.0,11.0,90,0.00,,,0.00,WeatherCatV1.02B3,2013-05-27 10:57:00,
2013-05-27 06:02:00,71.9,68.8,29.86,South,174,4.0,5.0,90,0.00,,,0.00,WeatherCatV1.02B3,2013-05-27 11:02:00,
2013-05-27 06:07:00,71.9,68.8,29.86,South,183,0.0,7.0,90,0.00,,,0.00,WeatherCatV1.02B3,2013-05-27 11:07:00,
2013-05-27 06:12:00,72.0,68.9,29.86,South,180,5.0,7.0,90,0.00,,,0.00,WeatherCatV1.02B3,2013-05-27 11:12:00,
2013-05-27 06:17:00,72.0,68.9,29.87,South,179,2.0,6.0,90,0.00,,,0.00,WeatherCatV1.02B3,2013-05-27 11:17:00,
2013-05-27 06:22:00,72.0,68.9,29.87,WSW,238,2.0,7.0,90,0.00,,,0.00,WeatherCatV1.02B3,2013-05-27 11:22:00,
2013-05-27 06:27:00,72.0,68.9,29.87,SSW,211,0.0,9.0,90,0.00,,,0.00,WeatherCatV1.02B3,2013-05-27 11:27:00,
2013-05-27 06:32:00,72.0,68.9,29.87,South,175,2.0,9.0,90,0.00,,,0.00,WeatherCatV1.02B3,2013-05-27 11:32:00,
2013-05-27 06:37:00,71.9,68.8,29.87,SSE,163,0.0,5.0,90,0.00,,,0.00,WeatherCatV1.02B3,2013-05-27 11:37:00,
2013-05-27 06:42:00,71.9,68.8,29.87,South,189,3.0,4.0,90,0.00,,,0.00,WeatherCatV1.02B3,2013-05-27 11:42:00,
2013-05-27 06:47:00,71.9,68.8,29.88,SSE,154,0.0,3.0,90,0.00,,,0.00,WeatherCatV1.02B3,2013-05-27 11:47:00,
2013-05-27 06:52:00,71.9,68.8,29.88,SSW,194,0.0,2.0,90,0.00,,,0.00,WeatherCatV1.02B3,2013-05-27 11:52:00,
2013-05-27 06:57:00,71.9,68.8,29.88,South,180,3.0,5.0,90,0.00,,,0.00,WeatherCatV1.02B3,2013-05-27 11:57:00,
2013-05-27 07:02:00,71.9,69.1,29.88,South,170,0.0,0.0,91,0.00,,,0.00,WeatherCatV1.02B3,2013-05-27 12:02:00,
2013-05-27 07:07:00,71.9,68.8,29.88,SSW,198,0.0,3.0,90,0.00,,,0.00,WeatherCatV1.02B3,2013-05-27 12:07:00,
2013-05-27 07:12:00,71.9,68.8,29.88,SSW,207,2.0,5.0,90,0.00,,,0.00,WeatherCatV1.02B3,2013-05-27 12:12:00,
2013-05-27 07:17:00,71.9,69.1,29.89,South,178,0.0,9.0,91,0.00,,,0.00,WeatherCatV1.02B3,2013-05-27 12:17:00,
2013-05-27 07:22:00,71.9,69.1,29.89,SSW,202,0.0,4.0,91,0.00,,,0.00,WeatherCatV1.02B3,2013-05-27 12:22:00,
2013-05-27 07:27:00,72.0,69.2,29.89,SW,230,0.0,3.0,91,0.00,,,0.00,WeatherCatV1.02B3,2013-05-27 12:27:00,
2013-05-27 07:32:00,72.0,69.2,29.89,SSW,198,0.0,3.0,91,0.00,,,0.00,WeatherCatV1.02B3,2013-05-27 12:32:00,
2013-05-27 07:37:00,72.0,69.2,29.89,SW,227,0.0,4.0,91,0.00,,,0.00,WeatherCatV1.02B3,2013-05-27 12:37:00,
2013-05-27 07:42:00,72.1,69.3,29.89,SE,141,3.0,6.0,91,0.00,,,0.00,WeatherCatV1.02B3,2013-05-27 12:42:00,
2013-05-27 07:47:00,72.2,69.4,29.90,SSW,195,0.0,5.0,91,0.00,,,0.00,WeatherCatV1.02B3,2013-05-27 12:47:00,
2013-05-27 07:52:00,72.3,69.5,29.90,SE,132,4.0,5.0,91,0.00,,,0.00,WeatherCatV1.02B3,2013-05-27 12:52:00,
2013-05-27 07:57:00,72.4,69.3,29.90,South,189,0.0,9.0,90,0.00,,,0.00,WeatherCatV1.02B3,2013-05-27 12:57:00,
2013-05-27 08:02:00,72.6,69.5,29.89,SSW,209,2.0,11.0,90,0.00,,,0.00,WeatherCatV1.02B3,2013-05-27 13:02:00,
2013-05-27 08:07:00,72.8,69.7,29.89,SSW,211,4.0,5.0,90,0.00,,,0.00,WeatherCatV1.02B3,2013-05-27 13:07:00,
2013-05-27 08:12:00,73.0,69.9,29.89,South,184,2.0,5.0,90,0.00,,,0.00,WeatherCatV1.02B3,2013-05-27 13:12:00,
2013-05-27 08:17:00,73.3,69.9,29.90,South,179,0.0,4.0,89,0.00,,,0.00,WeatherCatV1.02B3,2013-05-27 13:17:00,
2013-05-27 08:22:00,73.4,70.0,29.90,SSW,206,2.0,6.0,89,0.00,,,0.00,WeatherCatV1.02B3,2013-05-27 13:22:00,
2013-05-27 08:27:00,73.5,69.7,29.90,SSW,211,4.0,9.0,88,0.00,,,0.00,WeatherCatV1.02B3,2013-05-27 13:27:00,
2013-05-27 08:32:00,73.6,69.8,29.90,South,178,2.0,4.0,88,0.00,,,0.00,WeatherCatV1.02B3,2013-05-27 13:32:00,
2013-05-27 08:37:00,73.7,69.9,29.90,WSW,244,0.0,4.0,88,0.00,,,0.00,WeatherCatV1.02B3,2013-05-27 13:37:00,
2013-05-27 08:42:00,73.8,70.0,29.90,SW,234,0.0,5.0,88,0.00,,,0.00,WeatherCatV1.02B3,2013-05-27 13:42:00,
2013-05-27 08:47:00,74.2,70.1,29.90,WSW,245,1.0,3.0,87,0.00,,,0.00,WeatherCatV1.02B3,2013-05-27 13:47:00,
2013-05-27 08:52:00,74.4,69.9,29.90,WSW,244,6.0,10.0,86,0.00,,,0.00,WeatherCatV1.02B3,2013-05-27 13:52:00,
2013-05-27 08:57:00,74.5,70.0,29.90,SW,223,1.0,6.0,86,0.00,,,0.00,WeatherCatV1.02B3,2013-05-27 13:57:00,
2013-05-27 09:02:00,74.6,69.8,29.90,SW,236,5.0,17.0,85,0.00,,,0.00,WeatherCatV1.02B3,2013-05-27 14:02:00,
2013-05-27 09:07:00,74.7,69.9,29.90,South,188,4.0,5.0,85,0.00,,,0.00,WeatherCatV1.02B3,2013-05-27 14:07:00,
2013-05-27 09:12:00,74.8,70.0,29.90,SSW,202,1.0,9.0,85,0.00,,,0.00,WeatherCatV1.02B3,2013-05-27 14:12:00,
2013-05-27 09:17:00,74.9,69.7,29.90,WSW,243,1.0,11.0,84,0.00,,,0.00,WeatherCatV1.02B3,2013-05-27 14:17:00,
2013-05-27 09:22:00,74.9,69.7,29.90,SW,236,1.0,3.0,84,0.00,,,0.00,WeatherCatV1.02B3,2013-05-27 14:22:00,
2013-05-27 09:27:00,75.1,69.2,29.90,SSW,193,4.0,23.0,82,0.00,,,0.00,WeatherCatV1.02B3,2013-05-27 14:27:00,
2013-05-27 09:32:00,75.3,69.4,29.90,SSW,197,2.0,12.0,82,0.00,,,0.00,WeatherCatV1.02B3,2013-05-27 14:32:00,
2013-05-27 09:37:00,75.6,70.1,29.90,SW,221,2.0,4.0,83,0.00,,,0.00,WeatherCatV1.02B3,2013-05-27 14:37:00,
2013-05-27 09:42:00,75.8,69.9,29.90,WSW,238,1.0,10.0,82,0.00,,,0.00,WeatherCatV1.02B3,2013-05-27 14:42:00,
2013-05-27 09:47:00,76.3,70.0,29.90,West,274,1.0,6.0,81,0.00,,,0.00,WeatherCatV1.02B3,2013-05-27 14:47:00,
2013-05-27 09:52:00,76.4,70.1,29.90,WSW,240,0.0,5.0,81,0.00,,,0.00,WeatherCatV1.02B3,2013-05-27 14:52:00,
2013-05-27 09:57:00,76.7,70.4,29.90,SSW,205,0.0,11.0,81,0.00,,,0.00,WeatherCatV1.02B3,2013-05-27 14:57:00,
2013-05-27 10:02:00,76.9,70.2,29.90,SW,225,0.0,3.0,80,0.00,,,0.00,WeatherCatV1.02B3,2013-05-27 15:02:00,
2013-05-27 10:07:00,77.4,70.7,29.90,SW,217,1.0,6.0,80,0.00,,,0.00,WeatherCatV1.02B3,2013-05-27 15:07:00,
2013-05-27 10:12:00,77.9,70.5,29.90,SW,236,2.0,9.0,78,0.00,,,0.00,WeatherCatV1.02B3,2013-05-27 15:12:00,
2013-05-27 10:17:00,77.8,69.6,29.90,SW,229,2.0,9.0,76,0.00,,,0.00,WeatherCatV1.02B3,2013-05-27 15:17:00,
2013-05-27 10:22:00,77.9,69.7,29.90,South,173,0.0,11.0,76,0.00,,,0.00,WeatherCatV1.02B3,2013-05-27 15:22:00,
2013-05-27 10:27:00,77.8,69.6,29.90,SSW,210,1.0,3.0,76,0.00,,,0.00,WeatherCatV1.02B3,2013-05-27 15:27:00,
2013-05-27 10:32:00,77.7,69.5,29.89,South,174,1.0,10.0,76,0.00,,,0.00,WeatherCatV1.02B3,2013-05-27 15:32:00,
2013-05-27 10:37:00,77.6,69.8,29.89,SSE,161,0.0,2.0,77,0.00,,,0.00,WeatherCatV1.02B3,2013-05-27 15:37:00,
2013-05-27 10:42:00,77.6,69.8,29.89,West,274,0.0,3.0,77,0.00,,,0.00,WeatherCatV1.02B3,2013-05-27 15:42:00,
2013-05-27 10:47:00,77.5,69.7,29.89,SSW,206,3.0,10.0,77,0.00,,,0.00,WeatherCatV1.02B3,2013-05-27 15:47:00,
2013-05-27 10:52:00,77.8,70.4,29.89,SW,220,0.0,5.0,78,0.00,,,0.00,WeatherCatV1.02B3,2013-05-27 15:52:00,
2013-05-27 10:57:00,78.4,71.0,29.89,SSW,201,0.0,2.0,78,0.00,,,0.00,WeatherCatV1.02B3,2013-05-27 15:57:00,
2013-05-27 11:02:00,79.3,71.1,29.89,SW,228,0.0,4.0,76,0.00,,,0.00,WeatherCatV1.02B3,2013-05-27 16:02:00,
2013-05-27 11:07:00,79.9,71.2,29.89,SSW,192,4.0,10.0,75,0.00,,,0.00,WeatherCatV1.02B3,2013-05-27 16:07:00,
2013-05-27 11:12:00,80.0,70.1,29.89,SSW,211,0.0,11.0,72,0.00,,,0.00,WeatherCatV1.02B3,2013-05-27 16:12:00,
2013-05-27 11:17:00,80.0,70.1,29.88,SW,227,6.0,11.0,72,0.00,,,0.00,WeatherCatV1.02B3,2013-05-27 16:17:00,
2013-05-27 11:22:00,80.8,71.7,29.88,SSW,209,1.0,1.0,74,0.00,,,0.00,WeatherCatV1.02B3,2013-05-27 16:22:00,
2013-05-27 11:27:00,82.0,71.2,29.88,SW,218,2.0,5.0,70,0.00,,,0.00,WeatherCatV1.02B3,2013-05-27 16:27:00,
2013-05-27 11:32:00,82.7,71.5,29.88,SSW,207,0.0,4.0,69,0.00,,,0.00,WeatherCatV1.02B3,2013-05-27 16:32:00,
2013-05-27 11:37:00,82.9,70.3,29.88,SW,217,1.0,7.0,66,0.00,,,0.00,WeatherCatV1.02B3,2013-05-27 16:37:00,
2013-05-27 11:42:00,82.3,70.2,29.88,SW,234,1.0,11.0,67,0.00,,,0.00,WeatherCatV1.02B3,2013-05-27 16:42:00,
2013-05-27 11:47:00,82.2,72.2,29.88,SSW,198,6.0,9.0,72,0.00,,,0.00,WeatherCatV1.02B3,2013-05-27 16:47:00,
2013-05-27 11:52:00,82.7,71.9,29.88,SW,230,2.0,2.0,70,0.00,,,0.00,WeatherCatV1.02B3,2013-05-27 16:52:00,
2013-05-27 11:57:00,82.7,71.0,29.88,SSE,167,0.0,9.0,68,0.00,,,0.00,WeatherCatV1.02B3,2013-05-27 16:57:00,
2013-05-27 12:02:00,82.8,71.6,29.88,South,186,8.0,10.0,69,0.00,,,0.00,WeatherCatV1.02B3,2013-05-27 17:02:00,
2013-05-27 12:07:00,83.0,71.3,29.88,SSW,192,2.0,14.0,68,0.00,,,0.00,WeatherCatV1.02B3,2013-05-27 17:07:00,
2013-05-27 12:12:00,83.0,70.0,29.88,SSW,197,0.0,10.0,65,0.00,,,0.00,WeatherCatV1.02B3,2013-05-27 17:12:00,
2013-05-27 12:17:00,82.6,70.9,29.88,SW,214,1.0,3.0,68,0.00,,,0.00,WeatherCatV1.02B3,2013-05-27 17:17:00,
2013-05-27 12:22:00,83.0,71.8,29.88,South,176,4.0,4.0,69,0.00,,,0.00,WeatherCatV1.02B3,2013-05-27 17:22:00,
2013-05-27 12:27:00,83.3,71.6,29.88,SSW,202,0.0,9.0,68,0.00,,,0.00,WeatherCatV1.02B3,2013-05-27 17:27:00,
2013-05-27 12:32:00,83.6,71.0,29.88,South,188,2.0,7.0,66,0.00,,,0.00,WeatherCatV1.02B3,2013-05-27 17:32:00,
2013-05-27 12:37:00,83.4,70.4,29.88,SW,232,0.0,5.0,65,0.00,,,0.00,WeatherCatV1.02B3,2013-05-27 17:37:00,
2013-05-27 12:42:00,83.0,70.9,29.88,WSW,242,14.0,14.0,67,0.00,,,0.00,WeatherCatV1.02B3,2013-05-27 17:42:00,
2013-05-27 12:47:00,82.8,70.7,29.87,SE,138,0.0,10.0,67,0.00,,,0.00,WeatherCatV1.02B3,2013-05-27 17:47:00,
2013-05-27 12:52:00,82.7,71.5,29.87,SSW,210,0.0,1.0,69,0.00,,,0.00,WeatherCatV1.02B3,2013-05-27 17:52:00,
2013-05-27 12:57:00,82.7,70.6,29.87,SW,216,2.0,11.0,67,0.00,,,0.00,WeatherCatV1.02B3,2013-05-27 17:57:00,
2013-05-27 13:02:00,82.5,70.0,29.87,West,261,0.0,11.0,66,0.00,,,0.00,WeatherCatV1.02B3,2013-05-27 18:02:00,
2013-05-27 13:07:00,82.6,70.9,29.87,WSW,245,1.0,2.0,68,0.00,,,0.00,WeatherCatV1.02B3,2013-05-27 18:07:00,
2013-05-27 13:12:00,83.1,71.4,29.87,WSW,242,1.0,4.0,68,0.00,,,0.00,WeatherCatV1.02B3,2013-05-27 18:12:00,
2013-05-27 13:17:00,83.1,70.1,29.86,SW,227,1.0,16.0,65,0.00,,,0.00,WeatherCatV1.02B3,2013-05-27 18:17:00,
2013-05-27 13:22:00,83.2,70.6,29.86,SSW,205,0.0,6.0,66,0.00,,,0.00,WeatherCatV1.02B3,2013-05-27 18:22:00,
2013-05-27 13:27:00,83.3,71.2,29.86,SW,229,8.0,12.0,67,0.00,,,0.00,WeatherCatV1.02B3,2013-05-27 18:27:00,
2013-05-27 13:32:00,83.2,71.1,29.86,SSW,203,0.0,3.0,67,0.00,,,0.00,WeatherCatV1.02B3,2013-05-27 18:32:00,
2013-05-27 13:37:00,83.2,71.1,29.86,SW,219,0.0,9.0,67,0.00,,,0.00,WeatherCatV1.02B3,2013-05-27 18:37:00,
2013-05-27 13:42:00,83.4,71.3,29.86,South,169,4.0,14.0,67,0.00,,,0.00,WeatherCatV1.02B3,2013-05-27 18:42:00,
2013-05-27 13:47:00,84.0,71.4,29.85,SSW,212,4.0,9.0,66,0.00,,,0.00,WeatherCatV1.02B3,2013-05-27 18:47:00,
2013-05-27 13:52:00,84.7,71.6,29.85,South,177,0.0,1.0,65,0.00,,,0.00,WeatherCatV1.02B3,2013-05-27 18:52:00,
2013-05-27 13:57:00,84.8,71.2,29.85,SW,235,0.0,4.0,64,0.00,,,0.00,WeatherCatV1.02B3,2013-05-27 18:57:00,
2013-05-27 14:02:00,84.6,71.0,29.85,SW,226,1.0,10.0,64,0.00,,,0.00,WeatherCatV1.02B3,2013-05-27 19:02:00,
2013-05-27 14:07:00,84.3,71.2,29.85,WSW,238,1.0,2.0,65,0.00,,,0.00,WeatherCatV1.02B3,2013-05-27 19:07:00,
2013-05-27 14:12:00,84.2,70.2,29.85,SSE,166,0.0,1.0,63,0.00,,,0.00,WeatherCatV1.02B3,2013-05-27 19:12:00,
2013-05-27 14:17:00,84.1,70.1,29.84,SE,135,2.0,14.0,63,0.00,,,0.00,WeatherCatV1.02B3,2013-05-27 19:17:00,
2013-05-27 14:22:00,84.2,70.7,29.84,South,180,3.0,3.0,64,0.00,,,0.00,WeatherCatV1.02B3,2013-05-27 19:22:00,
2013-05-27 14:27:00,84.3,70.8,29.84,SSW,195,1.0,13.0,64,0.00,,,0.00,WeatherCatV1.02B3,2013-05-27 19:27:00,
2013-05-27 14:32:00,84.1,71.0,29.84,SW,232,1.0,5.0,65,0.00,,,0.00,WeatherCatV1.02B3,2013-05-27 19:32:00,
2013-05-27 14:37:00,84.1,70.6,29.84,SW,215,5.0,6.0,64,0.00,,,0.00,WeatherCatV1.02B3,2013-05-27 19:37:00,
2013-05-27 14:42:00,84.5,71.0,29.84,WSW,245,6.0,15.0,64,0.00,,,0.00,WeatherCatV1.02B3,2013-05-27 19:42:00,
2013-05-27 14:47:00,84.6,71.0,29.83,SSE,156,0.0,12.0,64,0.00,,,0.00,WeatherCatV1.02B3,2013-05-27 19:47:00,
2013-05-27 14:52:00,84.5,71.0,29.83,SSW,207,0.0,3.0,64,0.00,,,0.00,WeatherCatV1.02B3,2013-05-27 19:52:00,
2013-05-27 14:57:00,84.6,71.0,29.83,SW,221,1.0,13.0,64,0.00,,,0.00,WeatherCatV1.02B3,2013-05-27 19:57:00,
2013-05-27 15:02:00,85.0,71.0,29.83,WNW,295,0.0,2.0,63,0.00,,,0.00,WeatherCatV1.02B3,2013-05-27 20:02:00,
2013-05-27 15:07:00,84.9,70.4,29.83,SSW,206,2.0,11.0,62,0.00,,,0.00,WeatherCatV1.02B3,2013-05-27 20:07:00,
2013-05-27 15:12:00,84.8,70.8,29.83,WSW,251,0.0,3.0,63,0.00,,,0.00,WeatherCatV1.02B3,2013-05-27 20:12:00,
2013-05-27 15:17:00,84.8,71.2,29.82,South,169,1.0,1.0,64,0.00,,,0.00,WeatherCatV1.02B3,2013-05-27 20:17:00,
2013-05-27 15:22:00,85.0,70.0,29.82,WSW,241,2.0,6.0,61,0.00,,,0.00,WeatherCatV1.02B3,2013-05-27 20:22:00,
2013-05-27 15:27:00,85.4,71.8,29.82,SW,225,1.0,5.0,64,0.00,,,0.00,WeatherCatV1.02B3,2013-05-27 20:27:00,
2013-05-27 15:32:00,85.9,71.8,29.82,South,186,0.0,2.0,63,0.00,,,0.00,WeatherCatV1.02B3,2013-05-27 20:32:00,
2013-05-27 15:37:00,85.7,71.1,29.82,WSW,245,0.0,3.0,62,0.00,,,0.00,WeatherCatV1.02B3,2013-05-27 20:37:00,
2013-05-27 15:42:00,85.5,71.4,29.82,SSW,210,0.0,2.0,63,0.00,,,0.00,WeatherCatV1.02B3,2013-05-27 20:42:00,
2013-05-27 15:47:00,85.6,72.5,29.81,SSW,208,0.0,1.0,65,0.00,,,0.00,WeatherCatV1.02B3,2013-05-27 20:47:00,
2013-05-27 15:52:00,85.6,71.1,29.81,WSW,252,0.0,2.0,62,0.00,,,0.00,WeatherCatV1.02B3,2013-05-27 20:52:00,
2013-05-27 15:57:00,85.6,70.6,29.81,WSW,250,10.0,11.0,61,0.00,,,0.00,WeatherCatV1.02B3,2013-05-27 20:57:00,
2013-05-27 16:02:00,85.6,71.1,29.80,WSW,253,0.0,3.0,62,0.00,,,0.00,WeatherCatV1.02B3,2013-05-27 21:02:00,
2013-05-27 16:07:00,85.7,70.7,29.80,SSW,198,0.0,2.0,61,0.00,,,0.00,WeatherCatV1.02B3,2013-05-27 21:07:00,
2013-05-27 16:12:00,85.8,71.7,29.80,SSW,194,0.0,4.0,63,0.00,,,0.00,WeatherCatV1.02B3,2013-05-27 21:12:00,
2013-05-27 16:17:00,86.2,72.1,29.80,WSW,253,1.0,3.0,63,0.00,,,0.00,WeatherCatV1.02B3,2013-05-27 21:17:00,
2013-05-27 16:22:00,86.6,71.0,29.80,SW,234,0.0,2.0,60,0.00,,,0.00,WeatherCatV1.02B3,2013-05-27 21:22:00,
2013-05-27 16:27:00,86.6,71.5,29.80,SW,225,0.0,9.0,61,0.00,,,0.00,WeatherCatV1.02B3,2013-05-27 21:27:00,
2013-05-27 16:32:00,86.5,71.4,29.79,SSE,168,0.0,5.0,61,0.00,,,0.00,WeatherCatV1.02B3,2013-05-27 21:32:00,
2013-05-27 16:37:00,86.4,72.3,29.79,SSW,194,0.0,1.0,63,0.00,,,0.00,WeatherCatV1.02B3,2013-05-27 21:37:00,
2013-05-27 16:42:00,86.4,72.7,29.79,SSW,200,0.0,1.0,64,0.00,,,0.00,WeatherCatV1.02B3,2013-05-27 21:42:00,
2013-05-27 16:47:00,86.9,73.2,29.78,WSW,237,0.0,2.0,64,0.00,,,0.00,WeatherCatV1.02B3,2013-05-27 21:47:00,
2013-05-27 16:52:00,87.1,72.0,29.78,SSW,208,0.0,2.0,61,0.00,,,0.00,WeatherCatV1.02B3,2013-05-27 21:52:00,
2013-05-27 16:57:00,87.0,71.9,29.78,SW,217,0.0,2.0,61,0.00,,,0.00,WeatherCatV1.02B3,2013-05-27 21:57:00,
2013-05-27 17:02:00,86.8,70.2,29.78,SSW,203,0.0,14.0,58,0.00,,,0.00,WeatherCatV1.02B3,2013-05-27 22:02:00,
2013-05-27 17:07:00,86.7,71.1,29.78,SW,216,0.0,1.0,60,0.00,,,0.00,WeatherCatV1.02B3,2013-05-27 22:07:00,
2013-05-27 17:12:00,86.8,71.2,29.78,SW,235,0.0,2.0,60,0.00,,,0.00,WeatherCatV1.02B3,2013-05-27 22:12:00,
2013-05-27 17:17:00,86.9,71.3,29.77,SSW,213,0.0,6.0,60,0.00,,,0.00,WeatherCatV1.02B3,2013-05-27 22:17:00,
2013-05-27 17:22:00,86.8,71.2,29.77,South,171,0.0,3.0,60,0.00,,,0.00,WeatherCatV1.02B3,2013-05-27 22:22:00,
2013-05-27 17:27:00,87.0,71.4,29.77,South,186,4.0,7.0,60,0.00,,,0.00,WeatherCatV1.02B3,2013-05-27 22:27:00,
2013-05-27 17:32:00,87.2,71.6,29.76,South,178,0.0,2.0,60,0.00,,,0.00,WeatherCatV1.02B3,2013-05-27 22:32:00,
2013-05-27 17:37:00,87.1,71.0,29.76,SW,234,2.0,2.0,59,0.00,,,0.00,WeatherCatV1.02B3,2013-05-27 22:37:00,
2013-05-27 17:42:00,87.0,71.4,29.76,South,186,0.0,3.0,60,0.00,,,0.00,WeatherCatV1.02B3,2013-05-27 22:42:00,
2013-05-27 17:47:00,87.1,72.5,29.75,SW,231,0.0,1.0,62,0.00,,,0.00,WeatherCatV1.02B3,2013-05-27 22:47:00,
2013-05-27 17:52:00,87.0,71.4,29.75,SW,223,0.0,3.0,60,0.00,,,0.00,WeatherCatV1.02B3,2013-05-27 22:52:00,
2013-05-27 17:57:00,86.8,70.7,29.75,South,180,0.0,1.0,59,0.00,,,0.00,WeatherCatV1.02B3,2013-05-27 22:57:00,
2013-05-27 18:02:00,86.8,71.2,29.75,SSE,163,0.0,4.0,60,0.00,,,0.00,WeatherCatV1.02B3,2013-05-27 23:02:00,
2013-05-27 18:07:00,86.6,70.0,29.75,SSW,201,2.0,4.0,58,0.00,,,0.00,WeatherCatV1.02B3,2013-05-27 23:07:00,
2013-05-27 18:12:00,86.5,71.4,29.75,South,180,0.0,1.0,61,0.00,,,0.00,WeatherCatV1.02B3,2013-05-27 23:12:00,
2013-05-27 18:17:00,86.3,69.7,29.74,SW,229,2.0,14.0,58,0.00,,,0.00,WeatherCatV1.02B3,2013-05-27 23:17:00,
2013-05-27 18:22:00,86.2,70.7,29.74,SSE,154,1.0,1.0,60,0.00,,,0.00,WeatherCatV1.02B3,2013-05-27 23:22:00,
2013-05-27 18:27:00,86.1,70.1,29.74,SSW,200,0.0,2.0,59,0.00,,,0.00,WeatherCatV1.02B3,2013-05-27 23:27:00,
2013-05-27 18:32:00,86.0,70.5,29.74,SSW,196,0.0,3.0,60,0.00,,,0.00,WeatherCatV1.02B3,2013-05-27 23:32:00,
2013-05-27 18:37:00,85.9,69.9,29.74,SSW,204,0.0,7.0,59,0.00,,,0.00,WeatherCatV1.02B3,2013-05-27 23:37:00,
2013-05-27 18:42:00,85.8,70.3,29.74,West,269,0.0,2.0,60,0.00,,,0.00,WeatherCatV1.02B3,2013-05-27 23:42:00,
2013-05-27 18:47:00,85.7,70.7,29.72,South,176,0.0,4.0,61,0.00,,,0.00,WeatherCatV1.02B3,2013-05-27 23:47:00,
2013-05-27 18:52:00,85.5,69.5,29.72,SSE,159,0.0,10.0,59,0.00,,,0.00,WeatherCatV1.02B3,2013-05-27 23:52:00,
2013-05-27 18:57:00,85.3,70.3,29.72,SW,235,0.0,6.0,61,0.00,,,0.00,WeatherCatV1.02B3,2013-05-27 23:57:00,
2013-05-27 19:02:00,85.1,69.6,29.71,South,169,3.0,4.0,60,0.00,,,0.00,WeatherCatV1.02B3,2013-05-28 00:02:00,
2013-05-27 19:07:00,85.0,70.0,29.71,SSW,196,0.0,4.0,61,0.00,,,0.00,WeatherCatV1.02B3,2013-05-28 00:07:00,
2013-05-27 19:12:00,84.9,70.9,29.71,SSE,164,0.0,1.0,63,0.00,,,0.00,WeatherCatV1.02B3,2013-05-28 00:12:00,
2013-05-27 19:17:00,84.7,70.2,29.71,ESE,108,0.0,0.0,62,0.00,,,0.00,WeatherCatV1.02B3,2013-05-28 00:17:00,
2013-05-27 19:22:00,84.3,69.4,29.71,WSW,244,1.0,2.0,61,0.00,,,0.00,WeatherCatV1.02B3,2013-05-28 00:22:00,
2013-05-27 19:27:00,84.1,69.6,29.71,SSW,212,1.0,1.0,62,0.00,,,0.00,WeatherCatV1.02B3,2013-05-28 00:27:00,
2013-05-27 19:32:00,83.8,69.4,29.72,SSE,151,0.0,3.0,62,0.00,,,0.00,WeatherCatV1.02B3,2013-05-28 00:32:00,
2013-05-27 19:37:00,83.6,69.6,29.72,South,184,0.0,2.0,63,0.00,,,0.00,WeatherCatV1.02B3,2013-05-28 00:37:00,
2013-05-27 19:42:00,83.4,69.9,29.72,SSE,161,0.0,1.0,64,0.00,,,0.00,WeatherCatV1.02B3,2013-05-28 00:42:00,
2013-05-27 19:47:00,83.2,70.2,29.73,SSE,168,0.0,1.0,65,0.00,,,0.00,WeatherCatV1.02B3,2013-05-28 00:47:00,
2013-05-27 19:52:00,83.0,70.0,29.73,South,180,0.0,1.0,65,0.00,,,0.00,WeatherCatV1.02B3,2013-05-28 00:52:00,
2013-05-27 19:57:00,82.8,70.3,29.73,SW,223,4.0,6.0,66,0.00,,,0.00,WeatherCatV1.02B3,2013-05-28 00:57:00,
2013-05-27 20:02:00,82.6,70.1,29.73,South,190,0.0,1.0,66,0.00,,,0.00,WeatherCatV1.02B3,2013-05-28 01:02:00,
2013-05-27 20:07:00,82.3,69.8,29.73,SSE,151,0.0,1.0,66,0.00,,,0.00,WeatherCatV1.02B3,2013-05-28 01:07:00,
2013-05-27 20:12:00,82.2,70.1,29.73,SSE,152,0.0,1.0,67,0.00,,,0.00,WeatherCatV1.02B3,2013-05-28 01:12:00,
2013-05-27 20:17:00,82.0,70.4,29.74,South,182,0.0,1.0,68,0.00,,,0.00,WeatherCatV1.02B3,2013-05-28 01:17:00,
2013-05-27 20:22:00,81.8,70.2,29.74,South,187,0.0,1.0,68,0.00,,,0.00,WeatherCatV1.02B3,2013-05-28 01:22:00,
2013-05-27 20:27:00,81.6,70.0,29.74,SSE,155,0.0,1.0,68,0.00,,,0.00,WeatherCatV1.02B3,2013-05-28 01:27:00,
2013-05-27 20:32:00,81.4,69.8,29.74,SSE,150,0.0,1.0,68,0.00,,,0.00,WeatherCatV1.02B3,2013-05-28 01:32:00,
2013-05-27 20:37:00,81.3,70.1,29.74,South,175,1.0,3.0,69,0.00,,,0.00,WeatherCatV1.02B3,2013-05-28 01:37:00,
2013-05-27 20:42:00,81.1,69.9,29.74,South,175,1.0,1.0,69,0.00,,,0.00,WeatherCatV1.02B3,2013-05-28 01:42:00,
2013-05-27 20:47:00,80.9,69.8,29.74,SE,132,1.0,3.0,69,0.00,,,0.00,WeatherCatV1.02B3,2013-05-28 01:47:00,
2013-05-27 20:52:00,80.7,70.0,29.74,SE,136,0.0,1.0,70,0.00,,,0.00,WeatherCatV1.02B3,2013-05-28 01:52:00,
2013-05-27 20:57:00,80.5,69.8,29.74,SE,132,1.0,3.0,70,0.00,,,0.00,WeatherCatV1.02B3,2013-05-28 01:57:00,
2013-05-27 21:02:00,80.4,70.1,29.74,ESE,118,0.0,1.0,71,0.00,,,0.00,WeatherCatV1.02B3,2013-05-28 02:02:00,
2013-05-27 21:07:00,80.2,69.9,29.74,SSE,164,0.0,4.0,71,0.00,,,0.00,WeatherCatV1.02B3,2013-05-28 02:07:00,
2013-05-27 21:12:00,80.1,69.8,29.74,SSE,152,0.0,2.0,71,0.00,,,0.00,WeatherCatV1.02B3,2013-05-28 02:12:00,
2013-05-27 21:17:00,80.0,69.7,29.74,South,182,1.0,3.0,71,0.00,,,0.00,WeatherCatV1.02B3,2013-05-28 02:17:00,
2013-05-27 21:22:00,79.9,69.6,29.74,SSE,168,0.0,1.0,71,0.00,,,0.00,WeatherCatV1.02B3,2013-05-28 02:22:00,
2013-05-27 21:27:00,79.8,69.9,29.74,South,184,5.0,10.0,72,0.00,,,0.00,WeatherCatV1.02B3,2013-05-28 02:27:00,
2013-05-27 21:32:00,79.7,69.9,29.74,SSW,210,0.0,5.0,72,0.00,,,0.00,WeatherCatV1.02B3,2013-05-28 02:32:00,
2013-05-27 21:37:00,79.7,69.9,29.74,South,175,1.0,3.0,72,0.00,,,0.00,WeatherCatV1.02B3,2013-05-28 02:37:00,
2013-05-27 21:42:00,79.6,69.8,29.74,SE,134,1.0,4.0,72,0.00,,,0.00,WeatherCatV1.02B3,2013-05-28 02:42:00,
2013-05-27 21:47:00,79.6,69.8,29.74,South,170,1.0,3.0,72,0.00,,,0.00,WeatherCatV1.02B3,2013-05-28 02:47:00,
2013-05-27 21:52:00,79.6,69.8,29.74,SSE,160,1.0,1.0,72,0.00,,,0.00,WeatherCatV1.02B3,2013-05-28 02:52:00,
2013-05-27 21:57:00,79.5,69.7,29.74,South,186,0.0,1.0,72,0.00,,,0.00,WeatherCatV1.02B3,2013-05-28 02:57:00,
2013-05-27 22:02:00,79.4,69.6,29.75,SE,143,0.0,5.0,72,0.00,,,0.00,WeatherCatV1.02B3,2013-05-28 03:02:00,
2013-05-27 22:07:00,79.4,69.6,29.75,South,175,0.0,1.0,72,0.00,,,0.00,WeatherCatV1.02B3,2013-05-28 03:07:00,
2013-05-27 22:12:00,79.3,69.9,29.75,SSE,166,0.0,2.0,73,0.00,,,0.00,WeatherCatV1.02B3,2013-05-28 03:12:00,
2013-05-27 22:17:00,79.3,69.9,29.76,South,171,0.0,1.0,73,0.00,,,0.00,WeatherCatV1.02B3,2013-05-28 03:17:00,
2013-05-27 22:22:00,79.3,69.9,29.76,South,180,1.0,2.0,73,0.00,,,0.00,WeatherCatV1.02B3,2013-05-28 03:22:00,
2013-05-27 22:27:00,79.3,69.9,29.76,South,172,0.0,4.0,73,0.00,,,0.00,WeatherCatV1.02B3,2013-05-28 03:27:00,
2013-05-27 22:32:00,79.3,69.9,29.76,SSE,167,0.0,3.0,73,0.00,,,0.00,WeatherCatV1.02B3,2013-05-28 03:32:00,
2013-05-27 22:37:00,79.3,69.9,29.76,South,169,0.0,1.0,73,0.00,,,0.00,WeatherCatV1.02B3,2013-05-28 03:37:00,
2013-05-27 22:42:00,79.3,69.9,29.76,SSW,194,0.0,1.0,73,0.00,,,0.00,WeatherCatV1.02B3,2013-05-28 03:42:00,
2013-05-27 22:47:00,79.2,69.8,29.77,SSW,193,0.0,1.0,73,0.00,,,0.00,WeatherCatV1.02B3,2013-05-28 03:47:00,
2013-05-27 22:52:00,79.1,69.7,29.77,SSE,156,0.0,2.0,73,0.00,,,0.00,WeatherCatV1.02B3,2013-05-28 03:52:00,
2013-05-27 22:57:00,79.0,70.0,29.77,SSE,152,1.0,4.0,74,0.00,,,0.00,WeatherCatV1.02B3,2013-05-28 03:57:00,
2013-05-27 23:01:00,78.9,69.9,29.77,South,181,0.0,1.0,74,0.00,,,0.00,WeatherCatV1.02B3,2013-05-28 04:01:00,
2013-05-27 23:06:00,78.7,69.7,29.77,SSE,167,0.0,1.0,74,0.00,,,0.00,WeatherCatV1.02B3,2013-05-28 04:06:00,
2013-05-27 23:11:00,78.6,69.6,29.77,SSE,154,0.0,2.0,74,0.00,,,0.00,WeatherCatV1.02B3,2013-05-28 04:11:00,
2013-05-27 23:16:00,78.5,69.9,29.77,South,187,0.0,1.0,75,0.00,,,0.00,WeatherCatV1.02B3,2013-05-28 04:16:00,
2013-05-27 23:21:00,78.4,69.8,29.77,SSE,167,0.0,2.0,75,0.00,,,0.00,WeatherCatV1.02B3,2013-05-28 04:21:00,
2013-05-27 23:26:00,78.3,69.7,29.77,SE,132,0.0,1.0,75,0.00,,,0.00,WeatherCatV1.02B3,2013-05-28 04:26:00,
2013-05-27 23:31:00,78.2,70.0,29.77,SSW,194,9.0,12.0,76,0.00,,,0.00,WeatherCatV1.02B3,2013-05-28 04:31:00,
2013-05-27 23:36:00,78.1,69.9,29.77,South,188,0.0,5.0,76,0.00,,,0.00,WeatherCatV1.02B3,2013-05-28 04:36:00,
2013-05-27 23:41:00,78.0,69.8,29.77,SE,128,0.0,1.0,76,0.00,,,0.00,WeatherCatV1.02B3,2013-05-28 04:41:00,
2013-05-27 23:46:00,78.0,70.2,29.77,SSE,163,0.0,1.0,77,0.00,,,0.00,WeatherCatV1.02B3,2013-05-28 04:46:00,
2013-05-27 23:51:00,77.9,70.1,29.77,SW,226,0.0,2.0,77,0.00,,,0.00,WeatherCatV1.02B3,2013-05-28 04:51:00,
2013-05-27 23:56:00,77.8,70.4,29.77,South,176,1.0,3.0,78,0.00,,,0.00,WeatherCatV1.02B3,2013-05-28 04:56:00,